| time (UTC) | temp C | wind direction | speed KPH | gust KPH | rain 1hr cm | rain 24hr cm | rain mn cm | humidity % | barometer mb |
| 20260504081549 | 7 | 202 | 9.7 | 22.5 | 0.00 | 0.00 | 0.00 | 59 | 956.9 |
| 20260504044527 | 8 | 167 | 6.4 | 11.3 | 0.00 | 0.00 | 0.00 | 55 | 957.2 |
| 20260504043025 | 8 | 166 | 4.8 | 8.0 | 0.00 | 0.00 | 0.00 | 55 | 957.1 |
| 20260504041524 | 8 | 134 | 3.2 | 6.4 | 0.00 | 0.00 | 0.00 | 54 | 957.2 |
| 20260504040022 | 8 | 120 | 4.8 | 11.3 | 0.00 | 0.00 | 0.00 | 57 | 957.1 |
| 20260504034518 | 8 | 94 | 4.8 | 9.7 | 0.00 | 0.00 | 0.00 | 58 | 957.1 |
| 20260504033022 | 9 | 128 | 4.8 | 6.4 | 0.00 | 0.00 | 0.00 | 55 | 957.2 |
| 20260504031518 | 9 | 235 | 0.0 | 0.0 | 0.00 | 0.00 | 0.00 | 55 | 957.2 |
| 20260504030028 | 8 | 235 | 0.0 | 0.0 | 0.00 | 0.00 | 0.00 | 56 | 957.2 |
| 20260504024517 | 8 | 235 | 0.0 | 3.2 | 0.00 | 0.00 | 0.00 | 57 | 957.3 |
| 20260504023017 | 9 | 235 | 0.0 | 6.4 | 0.00 | 0.00 | 0.00 | 57 | 957.6 |
| 20260504021517 | 8 | 257 | 1.6 | 3.2 | 0.00 | 0.00 | 0.00 | 56 | 957.5 |
| 20260504020019 | 8 | 257 | 0.0 | 3.2 | 0.00 | 0.00 | 0.00 | 56 | 957.5 |
| 20260504014515 | 8 | 257 | 0.0 | 3.2 | 0.00 | 0.00 | 0.00 | 59 | 957.4 |
| 20260504013015 | 8 | 257 | 0.0 | 4.8 | 0.00 | 0.00 | 0.00 | 58 | 957.3 |
| 20260504011515 | 8 | 257 | 1.6 | 4.8 | 0.00 | 0.00 | 0.00 | 57 | 957.3 |
| 20260504010014 | 9 | 257 | 1.6 | 8.0 | 0.00 | 0.00 | 0.00 | 53 | 957.1 |
| 20260504004520 | 10 | 234 | 4.8 | 11.3 | 0.00 | 0.00 | 0.00 | 50 | 957.0 |
| 20260504003012 | 10 | 230 | 6.4 | 9.7 | 0.00 | 0.00 | 0.00 | 50 | 956.8 |
| 20260504001512 | 10 | 227 | 3.2 | 8.0 | 0.00 | 0.00 | 0.00 | 50 | 956.6 |
| 20260504000113 | 10 | 209 | 1.6 | 4.8 | 0.00 | 0.00 | 0.00 | 52 | 956.5 |
| 20260503234521 | 10 | 209 | 1.6 | 4.8 | 0.00 | 0.00 | 0.00 | 50 | 956.4 |
| 20260503233010 | 10 | 184 | 1.6 | 8.0 | 0.00 | 0.00 | 0.00 | 49 | 956.3 |
| 20260503231510 | 10 | 171 | 0.0 | 4.8 | 0.00 | 0.00 | 0.00 | 51 | 956.2 |
| 20260503230013 | 10 | 183 | 1.6 | 4.8 | 0.00 | 0.00 | 0.00 | 49 | 956.4 |
| 20260503224512 | 10 | 231 | 3.2 | 6.4 | 0.00 | 0.00 | 0.00 | 50 | 956.4 |
| 20260503223009 | 10 | 239 | 4.8 | 8.0 | 0.00 | 0.00 | 0.00 | 49 | 956.4 |
| 20260503221508 | 11 | 180 | 1.6 | 8.0 | 0.00 | 0.00 | 0.00 | 47 | 956.5 |
| 20260503220024 | 10 | 213 | 3.2 | 11.3 | 0.00 | 0.00 | 0.00 | 48 | 956.6 |
| 20260503214508 | 11 | 261 | 6.4 | 12.9 | 0.00 | 0.00 | 0.00 | 46 | 956.6 |
| 20260503213009 | 11 | 251 | 9.7 | 14.5 | 0.00 | 0.00 | 0.00 | 46 | 956.4 |
| 20260503211506 | 11 | 263 | 9.7 | 16.1 | 0.00 | 0.00 | 0.00 | 48 | 956.5 |
| 20260503210006 | 10 | 255 | 12.9 | 20.9 | 0.00 | 0.00 | 0.00 | 49 | 956.4 |
| 20260503204505 | 11 | 254 | 8.0 | 14.5 | 0.00 | 0.00 | 0.00 | 44 | 956.4 |
| 20260503203013 | 11 | 241 | 6.4 | 12.9 | 0.00 | 0.00 | 0.00 | 44 | 956.4 |
| 20260503201504 | 11 | 250 | 8.0 | 14.5 | 0.00 | 0.00 | 0.00 | 42 | 956.2 |
| 20260503200003 | 11 | 257 | 11.3 | 16.1 | 0.00 | 0.00 | 0.00 | 39 | 956.3 |
| 20260503194502 | 12 | 242 | 4.8 | 11.3 | 0.00 | 0.00 | 0.00 | 38 | 956.5 |
| 20260503193111 | 11 | 260 | 4.8 | 9.7 | 0.00 | 0.00 | 0.00 | 41 | 956.7 |
| 20260503191608 | 11 | 243 | 6.4 | 19.3 | 0.00 | 0.00 | 0.00 | 39 | 956.7 |
| 20260503184608 | 11 | 253 | 9.7 | 17.7 | 0.00 | 0.00 | 0.00 | 37 | 957.0 |
| 20260503183108 | 12 | 266 | 6.4 | 14.5 | 0.00 | 0.00 | 0.00 | 38 | 957.3 |
| 20260503181607 | 11 | 235 | 9.7 | 17.7 | 0.00 | 0.00 | 0.00 | 35 | 957.4 |
| 20260503180052 | 12 | 240 | 4.8 | 12.9 | 0.00 | 0.00 | 0.00 | 38 | 957.5 |
| 20260503174548 | 10 | 246 | 8.0 | 19.3 | 0.00 | 0.00 | 0.00 | 37 | 957.5 |
| 20260503173057 | 11 | 250 | 4.8 | 17.7 | 0.00 | 0.00 | 0.00 | 41 | 957.9 |
| 20260503171546 | 11 | 255 | 11.3 | 17.7 | 0.00 | 0.00 | 0.00 | 38 | 958.0 |
| 20260503160138 | 9 | 257 | 9.7 | 19.3 | 0.00 | 0.00 | 0.00 | 40 | 958.4 |